轨道通信卫星FM104星 (ORBCOMM FM104)

导读 | 星芒AI

ORBCOMM FM104 是一颗由 ORBCOMM 公司运营的低轨通信卫星,属于其全球物联网(IoT)通信网络的一部分。该卫星主要用于提供双向数据传输服务,支持远程监控、资产跟踪和环境监测等应用。FM104 运行在 L 波段,具备全球覆盖能力,适用于多种行业,如物流、能源和农业。该卫星采用模块化设计,提高了任务灵活性和可靠性,是 ORBCOMM 扩展其物联网解决方案的重要组成部分。

基本信息
目录编号:
40090
目录名称:
ORBCOMM FM 104
国际标识:
2014-040E
轨道中心:
EARTH
卫星名称:
轨道通信卫星FM104星
卫星全名:
轨道通信卫星FM104星 (ORBCOMM FM104)
卫星状态:
在轨 (已飞行4225 天)
发射日期:
2014-07-14 UTC
国别 :
(ORB)
星等 :
--
轨道信息
数据来源 国际轨道数据
星历时间: 2026-02-06T07:53:13+0800
14小时前
查看轨道信息
半长轴: 7080.638km
偏心率: 0.0016241
轨道倾角: 47.006°
近地点辐角 197.173°
升交点赤经 28.984°
平近点角 162.861°
近地点: 691.001km
远地点: 714.001km
周期: 98.825分钟
每日圈数: 14.571163
详细信息
固有亮度:
8
最大亮度:
6.7
平衡模式:
三轴稳定
覆盖范围:
全球
运营商:
轨道通信公司
运营商所在国:
美国
使用方式:
暂无
卫星简介
轨道通信FM(Orbcomm FM)是一系列低地球轨道通信卫星,由美国卫星通信公司 Orbcomm运营。 截至2015年12月,已有63颗此类卫星绕地球运行。该卫星已退役。
2D轨道图
3D轨道图
轨道高度分析图
轨道倾角分析图
轨道综合分析图
查看轨道综合分析图